Location: Palomar Mountain Lodge
(33.3110°N, 116.8495°W)
Time: 01:39:44
(UTC-07:00)

SPOT 5 - Pass Details

Date: 19 May 2017
Orbit: 624 x 815 km, 98.4° (Epoch: 22 June)

Event Time Altitude Azimuth Distance (km) Brightness Sun altitude
Exits shadow 21:06:33 17° 83° (E) 1,587 4.2 -15.6°
Maximum altitude 21:07:23 18° 69° (ENE) 1,543 4.3 -15.8°
Drops below altitude 10° 21:10:17 10° 26° (NNE) 1,997 5.3 -16.3°
Sets 21:13:02 0° 7° (N) 2,907 6.5 -16.7°
